Reflectivity
-20 -20 -20 -20 -20 -20 -20 -20 -20 -20 -20 -20 -20 -20 -20 -20 -20 -20 -20 -20 -20 -20 2 -14 -13 18 -20 -20 -20 -20 20 -20 0 -4 -20 -13 -20 -20 -20 -20 -20 -20 -20 -14 30 26 -20 -20 -20
-20 -20 -20 -20 -20 -20 -20 -20 -20 -20 -20 -20 -20 -20 -20 -20 -20 -20 -20 -20 -20 -20 -8 -20 5 20 15 3 -20 -20 -20 -20 -20 -20 -20 -20 -20 -20 -20 -20 -20 -20 -20 -14 28 2 -10 -20 -20
-20 -20 -20 -20 -20 -20 -20 -20 -20 -20 -20 -20 -20 -20 -20 -20 -20 -20 -20 -20 -20 -20 -20 -20 12 5 5 -9 -20 -20 -20 -20 19 -20 -20 -20 -20 -9 -20 -20 -20 -20 -20 -20 -20 32 26 -20 -20
-20 -20 -20 -20 -20 -20 -20 -20 -20 -20 -20 -20 -20 -20 -20 -20 -20 -20 -20 -20 -20 -20 -20 4 -20 -20 -18 14 6 -20 -20 -20 -20 -20 -20 -20 -20 -20 -20 -20 -20 -20 -20 -20 -20 -19 -20 -20 -20
-20 -20 -20 -20 -20 -20 -20 -20 -20 -20 -20 -20 -20 -20 -20 -20 -20 -20 -20 -20 -20 -20 -20 -20 15 1 7 4 10 -20 -8 -20 -20 -20 -20 -20 -20 -20 -20 -20 -20 -20 -20 -20 -20 -20 -20 -20 -20
-20 -20 -20 -20 -20 -20 -20 -20 -20 -20 -20 -20 -20 -20 -20 -20 -20 -20 -20 -20 -20 -20 -20 -20 -20 6 4 9 6 -20 -20 -20 -7 -12 6 -20 -20 -20 -20 -20 -20 -20 -20 -20 -20 -20 -20 -20 -20
-20 -20 -20 -20 -20 -20 -20 -20 -20 -20 -20 -20 -20 -20 -20 -20 -20 -20 -20 -20 -20 -20 -20 -20 -20 -20 -19 -0 11 7 -20 -20 -20 11 12 13 3 -10 -20 17 -1 -20 -20 -20 -20 -20 -20 -20 7
-20 -20 -20 -20 -20 -20 -20 -20 -20 -20 -20 -20 -20 -20 -20 -20 -20 -20 -20 -20 -20 -20 -20 -20 -20 -20 -20 -20 -20 -13 8 -13 -20 -20 -20 -20 -20 -20 -20 -20 -20 -20 -20 -19 6 -20 -20 -20 -20
-20 -20 -20 -20 -20 -20 -20 -20 -20 -20 -20 -20 -20 -20 -20 -20 -20 -20 -20 -20 -20 -20 -20 -20 -20 -20 -20 -20 -20 -20 -20 -18 2 -3 -12 -20 -20 -20 -20 -20 -20 -20 -20 -20 16 -20 -20 -20 -20
-20 -20 -20 -20 -20 -20 -20 -20 -20 -20 -20 -20 -20 -20 -20 -20 -20 -20 -20 -20 -20 -20 -20 -20 -20 -20 -20 -20 -20 -20 -20 -20 -20 -20 0 5 6 -19 -20 -20 -20 -20 -20 -20 -10 -4 -20 1 -20
-20 -20 -20 -20 -20 -20 -20 -20 -20 -20 -20 -20 -20 -20 -20 -20 -20 -20 -20 -20 -20 -20 -20 -20 -20 -20 -20 -20 -20 -20 -20 -20 -20 -20 -20 -19 8 12 -13 -20 -20 -20 -20 -20 -20 -20 -20 -20 -20
-20 -20 -20 -20 -20 -20 -20 -20 -20 -20 -20 -20 -20 -20 -20 -20 -20 -20 -20 -20 -20 -20 -20 -20 -20 -20 -20 -20 -20 -20 -20 -20 -20 -20 -20 -20 -20 -20 5 -20 -17 -20 -20 -20 -20 -20 -20 -0 26
-20 -20 -20 -20 -20 -20 -20 -20 -20 -20 -20 -20 -20 -20 -20 -20 -20 -20 -20 -20 -20 -20 -20 -20 -20 -20 -20 -20 -20 -20 -20 -20 -20 -20 -20 -20 -20 -20 -20 -20 0 8 -3 -12 -7 4 -18 -4 24
-20 -20 -20 -20 -20 -20 -20 -20 -20 -20 -20 -20 -20 -20 -20 -20 -20 -20 -20 -20 -20 -20 -20 -20 -20 -20 -20 -20 -20 -20 -20 -20 -20 -20 -20 -20 -20 -20 -20 -20 -20 -20 -1 5 -20 -20 21 -20 -2
-20 -20 -20 -20 -20 -20 -20 -20 -20 -20 -20 -20 -20 -20 -20 -20 -20 -20 -20 -20 -20 -20 -20 -20 -20 -20 -20 -20 -20 -20 -20 -20 -20 -20 -20 -20 -20 -20 -20 -20 -20 -20 -20 -20 -20 -20 -20 -15 -5
-20 -20 -20 -20 -20 -20 -20 -20 -20 -20 -20 -20 -20 -20 -20 -20 -20 -20 -20 -20 -20 -20 -20 -20 -20 -20 -20 -20 -20 -20 -20 -20 -20 -20 -20 -20 -20 -20 -20 -20 -20 -20 -20 -20 5 -4 -20 -20 -20
-20 -20 -20 -20 -20 -20 -20 -20 -20 -20 -20 -20 -20 -20 -20 -20 -20 -20 -20 -20 -20 -20 -20 -20 -20 -20 -20 -20 -20 -20 -20 -20 -20 -18 7 -20 -10 -12 -20 -8 -12 -13 -10 -20 -18 0 -2 -20 14
-20 -20 -20 -20 -20 -20 -20 -20 -20 -20 -20 -20 -20 -20 -20 -20 -20 -20 -20 -20 -20 -20 -20 -20 -20 -20 -20 -20 -20 -20 -20 -20 -17 -4 -20 -20 -20 -20 -20 -14 -16 -18 -20 -9 -20 -20 -18 24 -8
-20 -20 -20 -20 -20 -20 -20 -20 -20 -20 -20 -20 -20 -20 -20 -20 -20 -20 -20 -20 -20 -20 -20 -20 -20 -20 -20 -20 -20 -20 -20 -20 -20 -14 -16 -20 -20 -20 -20 -10 -20 -20 6 7 -8 -20 8 13 15
-20 -20 -20 -20 -20 -20 -20 -20 -20 -20 -20 -20 -20 -20 -20 -20 -20 -20 -20 -20 -20 -20 -20 -20 -20 -20 -20 -20 -20 -20 -20 -20 -8 -15 -19 -20 -20 -20 -20 -20 -20 6 1 3 -15 -18 -20 -3 4
-20 -20 -20 -20 -20 -20 -20 -20 -20 -20 -20 -20 -20 -20 -20 -20 -20 -20 -20 -20 -20 -20 -20 -20 -20 -20 -20 -20 -20 -20 -20 -20 -20 -20 -20 -20 -20 -20 -20 -20 -20 -19 -5 -4 5 -19 -20 -3 23
-20 -20 -20 -20 -20 -20 -20 -20 -20 -20 -20 -20 -20 -20 -20 -20 -20 -20 -20 -20 -20 -20 -20 -20 -20 -20 -20 -20 -20 -20 -20 -20 -20 -20 -20 -20 -20 -20 -20 -20 -20 -20 -4 -20 -20 -20 3 -14 -20
-20 -20 -20 -20 -20 -20 -20 -20 -20 -20 -20 -20 -20 -20 -20 -20 -20 -20 -20 -20 -20 -20 -20 -20 -20 -20 -20 -20 -20 -20 -20 -20 -20 -20 -20 -20 -20 -20 -20 -11 -20 -8 -1 14 -0 -15 2 -20 -9
-20 -20 -20 -20 -20 -20 -20 -20 -20 -20 -20 -20 -20 -20 -20 -20 -20 -20 -20 -20 -20 -20 -20 -20 -20 -20 -20 -20 -20 -20 -20 -20 -20 -20 -20 -20 -20 -20 -20 -20 -20 -20 -20 -20 -15 -19 -20 -15 -19
-20 -20 -20 -20 -20 -20 -20 -20 -20 -20 -20 -20 -20 -20 -20 -20 -20 -20 -20 -20 -20 -20 -20 -20 -20 -20 -20 -20 -20 -20 -20 -20 -20 -20 -20 -20 -20 -20 -20 -20 -20 -20 -20 -20 -20 -20 -20 -20 -17
-20 -20 -20 -20 -20 -20 -20 -20 -20 -20 -20 -20 -20 -20 -20 -20 -20 -20 -20 -20 -20 -20 -20 -20 -20 -20 -20 -20 -20 -20 -20 -20 -20 -20 -20 -20 -20 -20 -20 -20 -20 -20 -20 -20 -20 -20 -20 -20 -20
-20 -20 -20 -20 -20 -20 -20 -20 -20 -20 -20 -20 -20 -20 -20 -20 -20 -20 -20 -20 -20 -20 -20 -20 -20 -20 -20 -20 -20 -20 -20 -20 -20 -20 -20 -20 -20 -20 -20 -20 -20 -20 -20 -20 -20 -20 -20 -20 -20
-20 -20 -20 -20 -20 -20 -20 -20 -20 -20 -20 -20 -20 -20 -20 -20 -20 -20 -20 -20 -20 -20 -20 -20 -20 -20 -20 -20 -20 -20 -20 -20 -20 -20 -20 -20 -20 -20 -20 -20 -20 -20 -20 -20 -20 -20 -20 -20 -20
-20 -20 -20 -20 -20 -20 -20 -20 -20 -20 -20 -20 -20 -20 -20 -20 -20 -20 -20 -20 -20 -20 -20 -20 -20 -20 -20 -20 -20 -20 -20 -20 -20 -20 -20 -20 -20 -20 -20 -20 -20 -20 -20 -20 -20 -20 -20 -20 -20
-20 -20 -20 -20 -20 -20 -20 -20 -20 -20 -20 -20 -20 -20 -20 -20 -20 -20 -20 -20 -20 -20 -20 -20 -20 -20 -20 -20 -20 -20 -20 -20 -20 -20 -20 -20 -20 -20 -20 -20 -20 -20 -20 -20 -20 -20 -20 -20 -20
Wind_Speed
3 2 3 6 6 6 2 2 1 2 3 6 2 5 9 4 3 3 2 6 9 7 10 10 1 4 4 4 3 2 2 2 2 3 3 2 3 4 4 4 3 3 3 5 4 5 6 6 7
1 1 5 3 7 4 4 3 3 1 5 6 6 3 7 4 2 2 2 8 7 7 9 13 4 4 3 3 3 1 1 1 2 2 1 2 3 3 4 4 4 4 4 7 8 6 8 7 7
1 3 5 6 4 5 5 3 4 2 4 1 5 5 3 2 1 1 3 7 7 8 8 13 19 9 4 3 2 1 0 2 3 3 3 3 4 5 5 4 5 5 5 6 8 7 9 8 7
1 5 5 6 4 1 4 4 1 3 4 6 4 7 3 1 0 2 5 6 7 8 9 13 18 18 14 10 5 4 2 2 3 4 5 5 6 5 5 6 5 5 5 7 7 6 9 8 7
4 3 5 4 2 1 0 1 1 3 3 4 2 3 3 2 3 6 6 6 7 7 7 9 17 17 17 16 16 12 8 5 5 5 6 6 6 6 6 6 6 6 6 6 5 7 9 9 9
4 4 5 5 3 1 1 2 2 3 2 2 6 4 2 0 2 5 5 6 6 7 8 8 13 16 16 16 16 15 15 13 10 8 8 7 8 8 8 7 7 7 8 8 8 8 10 11 10
6 5 4 6 6 2 2 1 3 4 2 4 4 5 1 2 2 3 5 6 7 8 8 7 8 11 14 15 15 15 14 15 14 12 9 9 8 8 9 8 8 9 9 9 9 10 11 12 11
5 5 5 1 6 5 1 2 2 3 2 1 1 4 4 2 2 4 5 7 7 8 8 9 8 8 8 7 14 16 14 14 14 11 10 9 8 8 9 9 8 10 10 10 10 10 11 12 11
3 6 4 7 7 5 2 4 2 0 5 4 4 3 3 2 4 5 6 7 7 7 8 9 10 10 9 7 9 12 14 14 12 8 8 7 4 5 6 6 9 10 10 11 11 11 11 11 11
5 4 7 2 4 5 4 3 2 3 3 4 4 4 3 5 6 7 6 6 6 7 7 8 8 9 9 7 7 7 8 5 6 8 6 4 4 4 5 6 9 10 10 11 12 12 12 10 4
2 4 6 1 2 4 5 3 1 7 1 3 5 3 3 5 6 7 5 5 4 4 5 8 7 7 7 7 6 4 4 4 5 6 8 7 4 3 3 3 3 4 5 5 6 6 6 6 5
8 4 2 4 2 4 4 3 4 1 2 5 4 4 4 6 6 6 6 5 5 5 6 7 7 6 7 5 5 4 5 5 5 6 7 5 4 4 4 3 4 4 3 5 4 4 7 7 8
6 3 5 5 7 6 5 4 1 3 5 2 3 6 7 7 6 5 5 4 4 7 7 7 6 6 7 5 4 5 5 5 6 6 6 4 4 5 4 4 4 4 4 4 5 6 7 8 7
3 6 4 6 5 5 3 1 3 1 2 5 4 6 6 7 4 3 5 6 6 5 6 7 6 6 6 6 6 5 4 5 6 6 6 6 4 4 5 4 5 5 5 5 5 6 6 6 6
4 7 5 7 5 3 2 2 4 2 3 7 6 6 6 5 5 6 4 4 5 5 6 7 6 6 7 6 5 4 4 6 5 6 8 8 6 5 5 5 5 6 5 6 5 5 4 6 5
6 6 4 4 4 3 2 6 1 4 6 6 6 5 5 3 4 4 3 3 4 5 6 7 7 7 8 6 4 4 5 5 5 5 5 8 6 6 5 5 5 5 4 4 3 3 3 6 5
7 4 3 1 3 3 2 4 2 2 4 6 5 6 6 4 3 1 3 4 5 5 6 6 7 8 9 7 5 5 5 4 5 5 7 11 11 10 8 5 4 5 4 4 3 2 3 3 4
5 6 3 3 2 3 3 8 6 5 4 9 8 6 7 7 5 1 4 5 6 6 6 6 6 7 8 6 5 4 6 4 5 5 7 10 9 11 8 7 7 6 4 4 3 1 2 4 3
7 6 6 0 1 1 5 7 11 9 6 10 9 7 9 7 4 2 2 5 6 5 6 6 7 7 6 4 4 3 3 5 5 6 10 10 10 11 9 7 8 8 6 5 5 2 2 2 6
7 6 3 2 1 1 5 13 13 6 7 8 10 9 9 6 5 4 1 2 4 5 6 6 6 6 5 3 3 3 3 2 5 6 7 9 10 10 9 9 8 11 8 10 9 8 3 2 5
5 6 3 4 3 2 7 9 4 3 3 2 3 4 6 8 7 5 3 1 3 4 5 5 6 6 5 6 3 3 2 2 4 5 6 7 8 9 9 10 9 8 7 7 8 8 10 4 4
4 2 3 4 5 2 4 6 6 3 6 3 3 5 7 7 5 4 4 3 2 2 3 4 5 5 4 5 4 5 4 3 3 3 3 5 8 9 9 9 8 8 6 8 7 7 6 4 5
3 3 4 3 4 4 1 4 10 3 6 7 8 8 7 7 7 7 6 4 1 1 1 2 3 4 5 6 5 3 4 2 2 3 4 5 5 7 8 8 8 7 5 5 6 6 7 4 4
4 5 7 5 3 3 1 4 8 4 6 1 3 8 8 7 7 6 4 3 3 2 0 1 3 3 5 4 5 5 6 4 3 3 3 3 3 4 6 7 6 6 5 6 5 4 4 4 2
6 6 4 6 5 6 2 1 13 7 5 3 3 7 8 8 7 6 6 6 5 4 3 2 1 1 4 5 5 4 4 4 3 2 2 4 3 3 6 6 6 5 7 7 7 7 7 7 6
3 5 6 6 2 5 2 7 8 3 1 1 1 3 6 7 6 7 7 6 6 6 5 4 3 2 2 2 3 3 2 1 2 3 2 2 3 3 5 5 6 6 6 6 6 5 5 7 6
2 1 3 6 2 2 4 9 10 4 6 4 6 5 8 8 7 7 7 6 6 6 6 6 4 3 3 3 2 2 1 1 0 1 1 1 2 3 5 5 5 5 5 5 5 4 5 5 4
2 5 3 3 1 4 6 7 8 4 3 6 8 9 8 7 7 7 6 7 6 6 6 6 6 6 5 4 4 3 4 3 2 1 2 4 4 5 5 4 4 3 3 2 2 1 3 4 4
2 0 4 3 3 4 4 8 6 5 4 6 7 7 8 8 8 7 7 7 7 7 7 6 5 6 6 6 4 5 5 4 3 1 2 2 2 4 5 5 5 5 6 5 4 4 3 4 4
4 5 5 4 3 1 2 11 2 5 4 4 7 6 5 6 7 7 7 7 7 7 7 7 7 7 7 7 6 6 5 4 3 3 2 1 1 1 2 3 3 4 5 4 3 3 3 2 3
Wind_Direction
351 359 76 42 67 65 155 196 244 120 73 326 94 105 116 49 65 166 255 358 339 325 337 339 320 125 114 84 58 126 176 179 188 146 166 151 141 149 159 169 186 225 259 284 231 182 166 137 131
29 116 43 85 88 91 254 263 156 143 156 162 72 52 46 72 45 67 11 341 335 343 355 359 49 117 95 98 69 36 244 185 217 237 221 203 195 193 194 201 214 235 263 297 295 190 163 151 147
180 47 83 94 109 167 170 203 144 65 142 172 100 49 85 88 69 113 325 331 2 7 6 15 24 22 36 35 63 47 339 227 238 250 269 260 258 240 230 241 249 257 274 296 300 198 173 168 171
123 21 38 85 147 215 158 160 171 138 70 47 114 67 53 156 32 54 357 5 20 3 17 20 24 21 22 8 349 331 306 268 248 253 256 250 248 254 257 250 256 251 267 292 294 200 178 178 189
39 55 75 80 115 134 4 339 295 83 88 28 352 135 76 45 73 39 18 19 23 4 10 15 21 19 20 21 19 1 332 308 289 266 256 242 246 253 254 245 247 240 251 268 276 220 202 197 205
52 97 78 153 159 126 354 349 96 74 35 56 80 92 135 6 70 8 24 17 16 18 5 11 12 14 15 13 14 10 4 348 318 295 279 268 255 258 260 249 244 239 244 241 240 242 224 219 220
115 88 145 129 147 149 158 324 79 107 82 33 134 89 152 92 69 25 27 24 23 20 20 5 4 7 10 6 7 6 4 2 345 332 315 303 294 282 276 268 253 246 247 246 240 237 231 230 230
105 94 107 138 173 175 191 84 109 82 94 90 95 149 180 186 59 23 29 26 35 25 21 7 3 6 2 358 8 2 358 358 354 347 334 323 310 296 292 289 284 273 262 251 247 243 241 233 231
108 68 146 174 167 168 171 119 5 76 95 60 19 98 129 104 34 40 25 11 17 23 25 13 10 6 359 357 359 359 354 350 345 345 336 329 305 293 284 269 271 274 275 268 254 247 244 237 236
80 97 182 174 151 149 119 107 118 104 88 60 54 59 92 44 49 59 46 35 26 14 359 10 6 2 358 358 356 352 347 338 336 334 324 317 306 288 288 286 286 284 277 272 267 260 251 233 215
71 149 160 70 123 104 117 92 131 123 141 164 161 152 103 61 56 71 57 53 36 348 6 4 358 355 0 353 344 346 341 336 333 331 332 321 312 300 291 288 283 280 274 267 261 253 243 218 206
95 47 85 143 32 90 94 106 84 92 162 138 138 122 103 94 79 91 75 47 22 9 353 349 352 1 356 344 346 326 341 340 333 326 317 322 317 313 298 288 275 261 251 268 259 256 246 240 214
71 121 53 79 75 68 98 54 17 254 204 237 108 93 115 113 111 88 85 48 14 14 354 349 339 358 350 347 336 333 334 329 322 319 313 317 312 303 298 294 278 275 264 240 259 251 249 250 231
85 87 90 38 49 48 77 51 15 274 210 222 140 105 113 123 122 91 41 21 15 356 350 336 340 355 348 343 332 326 319 314 327 319 309 306 293 290 291 287 292 284 269 266 252 258 254 252 244
88 73 37 19 13 48 52 307 236 236 117 129 125 126 116 108 85 76 50 26 1 346 337 348 349 355 353 335 327 325 326 329 319 317 314 308 303 295 287 286 287 282 279 263 263 259 244 265 251
67 56 91 340 3 348 63 258 221 196 155 155 157 155 155 142 113 93 64 28 359 353 348 335 343 3 347 322 321 333 327 327 319 324 318 319 319 316 301 287 277 277 277 275 271 267 262 256 249
17 142 109 343 8 341 67 264 284 156 181 199 180 191 185 171 153 93 43 23 8 359 346 344 354 359 340 326 340 340 343 330 340 3 7 5 6 355 345 330 304 296 292 275 243 263 238 269 259
170 109 84 141 340 4 316 270 277 260 214 237 225 211 200 202 199 149 29 12 4 0 358 360 352 349 337 326 329 317 13 354 18 27 21 7 5 359 350 350 350 350 324 329 324 221 289 272 281
121 107 115 85 68 27 266 275 270 262 230 249 242 216 210 199 184 142 28 1 349 2 359 357 343 342 347 342 345 338 355 10 25 26 24 15 8 5 7 2 4 350 30 25 9 350 353 305 359
71 96 47 4 49 51 333 284 261 236 236 214 227 219 202 169 183 183 245 6 350 345 355 351 340 339 333 314 308 306 319 19 33 22 28 17 20 15 16 18 17 16 5 16 16 10 341 69 35
44 101 140 157 339 40 336 294 286 227 228 257 229 188 162 178 183 193 223 312 335 353 353 354 338 342 335 332 303 326 332 21 25 23 25 15 20 24 27 26 24 23 29 21 22 11 13 2 15
87 -0 95 59 59 236 24 275 291 257 270 233 208 181 172 177 179 189 213 241 282 358 353 351 352 344 352 357 11 32 44 40 5 7 1 22 26 20 21 30 27 33 24 24 12 16 23 5 29
160 70 57 67 77 38 7 72 268 350 280 242 215 214 204 193 191 205 215 230 123 12 337 355 4 12 9 21 29 41 50 40 23 11 25 22 15 25 26 30 25 28 24 35 25 8 29 21 38
119 65 43 51 59 22 323 121 281 213 217 256 205 211 200 200 210 216 219 226 214 193 148 39 26 8 13 22 24 38 47 32 37 25 25 7 5 22 21 24 13 12 15 13 17 13 31 31 59
66 56 355 357 10 224 321 61 247 257 235 224 241 233 201 202 208 218 224 221 211 209 212 228 224 308 -0 19 17 26 37 40 53 36 24 25 15 21 16 14 12 8 7 9 6 14 7 8 14
79 131 150 208 221 273 16 236 252 218 58 199 191 225 192 208 216 217 218 212 212 214 211 227 252 288 355 10 339 6 16 356 25 23 25 33 34 36 25 27 27 17 10 9 13 16 7 13 8
167 155 154 102 -0 322 249 286 296 231 246 241 237 213 219 219 217 217 220 220 222 223 219 215 226 232 229 224 234 248 306 0 55 330 2 25 30 29 34 35 31 25 25 25 25 26 13 12 1
138 151 73 3 84 275 285 273 245 315 249 226 242 239 242 231 223 220 221 224 225 222 220 212 213 220 227 222 223 222 236 230 236 261 21 20 14 15 16 20 33 30 40 36 52 39 17 33 4
120 170 62 117 138 181 316 273 217 235 228 215 244 244 237 228 220 215 218 219 220 220 214 221 226 227 233 227 226 221 224 221 225 246 12 20 9 3 7 2 1 1 357 357 5 357 18 17 2
163 185 152 131 234 136 127 274 290 271 260 268 273 282 261 234 224 218 218 213 219 218 214 217 222 223 222 223 220 227 225 220 218 210 204 182 23 10 -0 357 355 349 342 333 323 323 319 312 328